Wetterdaten: Samstag, 27.06.2015
Datum Zeit Auen-Temp. Temp gefhlt Luftfeuchte Luftdruck Regen Wind Richtung Richtung Taupunkt Windben
27.06.2015 00:00 14,6 C 14,5 C 71 % 1022,4 hPa 0,0 mm 0,0 km/h (0 Bft) SW 225 9,4 C 0,0 km/h (0 Bft)
27.06.2015 00:05 14,6 C 14,5 C 71 % 1022,4 hPa 0,0 mm 0,0 km/h (0 Bft) SW 225 9,4 C 0,0 km/h (0 Bft)
27.06.2015 00:10 14,4 C 14,3 C 71 % 1022,4 hPa 0,0 mm 0,0 km/h (0 Bft) SW 225 9,2 C 0,0 km/h (0 Bft)
27.06.2015 00:15 14,3 C 14,2 C 71 % 1022,4 hPa 0,0 mm 0,0 km/h (0 Bft) SW 225 9,1 C 0,0 km/h (0 Bft)
27.06.2015 00:20 14,3 C 14,2 C 72 % 1022,4 hPa 0,0 mm 0,0 km/h (0 Bft) W-SW 247 9,3 C 0,0 km/h (0 Bft)
27.06.2015 00:25 14,3 C 14,2 C 72 % 1022,4 hPa 0,0 mm 0,0 km/h (0 Bft) W-SW 247 9,3 C 0,0 km/h (0 Bft)
27.06.2015 00:30 14,2 C 14,1 C 72 % 1022,4 hPa 0,0 mm 0,0 km/h (0 Bft) W-SW 247 9,2 C 0,0 km/h (0 Bft)
27.06.2015 00:35 14,4 C 14,2 C 72 % 1022,2 hPa 0,0 mm 0,0 km/h (0 Bft) S-SW 202 9,4 C 0,0 km/h (0 Bft)
27.06.2015 00:40 14,2 C 14,1 C 72 % 1022,2 hPa 0,0 mm 0,0 km/h (0 Bft) W-SW 247 9,2 C 0,0 km/h (0 Bft)
27.06.2015 00:45 14,1 C 14,0 C 72 % 1022,2 hPa 0,0 mm 0,0 km/h (0 Bft) S-SW 202 9,1 C 0,0 km/h (0 Bft)
27.06.2015 00:50 14,0 C 13,9 C 72 % 1022,2 hPa 0,0 mm 0,0 km/h (0 Bft) S-SW 202 9,0 C 0,0 km/h (0 Bft)
27.06.2015 00:55 13,8 C 13,7 C 72 % 1022,3 hPa 0,0 mm 0,0 km/h (0 Bft) S-SW 202 8,8 C 0,0 km/h (0 Bft)
27.06.2015 01:00 13,7 C 13,6 C 72 % 1022,3 hPa 0,0 mm 0,0 km/h (0 Bft) N-NW 337 8,7 C 0,0 km/h (0 Bft)
27.06.2015 01:05 13,6 C 13,5 C 73 % 1022,3 hPa 0,0 mm 0,0 km/h (0 Bft) NW 315 8,9 C 0,0 km/h (0 Bft)
27.06.2015 01:10 13,5 C 13,4 C 73 % 1022,3 hPa 0,0 mm 0,0 km/h (0 Bft) NW 315 8,8 C 0,0 km/h (0 Bft)
27.06.2015 01:15 13,4 C 13,3 C 73 % 1022,1 hPa 0,0 mm 0,0 km/h (0 Bft) NW 315 8,7 C 0,0 km/h (0 Bft)
27.06.2015 01:20 13,4 C 13,2 C 73 % 1022,1 hPa 0,0 mm 0,0 km/h (0 Bft) W-SW 247 8,7 C 0,0 km/h (0 Bft)
27.06.2015 01:25 13,3 C 13,1 C 74 % 1022,1 hPa 0,0 mm 0,0 km/h (0 Bft) W-SW 247 8,8 C 0,0 km/h (0 Bft)
27.06.2015 01:30 13,3 C 13,1 C 74 % 1022,1 hPa 0,0 mm 0,0 km/h (0 Bft) NW 315 8,8 C 0,0 km/h (0 Bft)
27.06.2015 01:35 13,4 C 13,2 C 74 % 1022,2 hPa 0,0 mm 0,3 km/h (0 Bft) NW 315 8,9 C 0,0 km/h (0 Bft)
27.06.2015 01:40 13,5 C 13,3 C 75 % 1022,2 hPa 0,0 mm 0,3 km/h (0 Bft) O 90 9,2 C 0,0 km/h (0 Bft)
27.06.2015 01:45 13,3 C 13,2 C 74 % 1022,2 hPa 0,0 mm 0,0 km/h (0 Bft) O 90 8,8 C 0,0 km/h (0 Bft)
27.06.2015 01:50 13,0 C 12,9 C 74 % 1022,2 hPa 0,0 mm 0,0 km/h (0 Bft) O 90 8,5 C 0,0 km/h (0 Bft)
27.06.2015 01:55 13,0 C 12,9 C 74 % 1022,1 hPa 0,0 mm 0,0 km/h (0 Bft) O 90 8,5 C 0,0 km/h (0 Bft)
27.06.2015 02:00 12,9 C 12,8 C 76 % 1022,1 hPa 0,0 mm 0,0 km/h (0 Bft) O-SO 112 8,8 C 0,0 km/h (0 Bft)
27.06.2015 02:05 13,0 C 12,8 C 75 % 1022,1 hPa 0,0 mm 0,0 km/h (0 Bft) W 270 8,7 C 0,0 km/h (0 Bft)
27.06.2015 02:10 13,1 C 12,9 C 76 % 1022,1 hPa 0,0 mm 0,0 km/h (0 Bft) S-SO 157 9,0 C 0,0 km/h (0 Bft)
27.06.2015 02:15 13,2 C 13,0 C 76 % 1021,9 hPa 0,0 mm 0,0 km/h (0 Bft) S 180 9,1 C 0,0 km/h (0 Bft)
27.06.2015 02:20 13,1 C 13,0 C 76 % 1021,9 hPa 0,0 mm 0,0 km/h (0 Bft) SO 135 9,0 C 0,0 km/h (0 Bft)
27.06.2015 02:25 13,2 C 13,1 C 77 % 1021,9 hPa 0,0 mm 0,0 km/h (0 Bft) S 180 9,3 C 0,0 km/h (0 Bft)
27.06.2015 02:30 13,6 C 13,5 C 77 % 1021,9 hPa 0,0 mm 2,8 km/h (1 Bft) S-SW 202 9,6 C 13,2 km/h (3 Bft)
27.06.2015 02:35 13,6 C 13,5 C 77 % 1021,5 hPa 0,0 mm 3,9 km/h (1 Bft) S 180 9,6 C 2,8 km/h (1 Bft)
27.06.2015 02:40 13,6 C 13,6 C 77 % 1021,5 hPa 0,0 mm 1,3 km/h (1 Bft) S 180 9,6 C 0,0 km/h (0 Bft)
27.06.2015 02:45 13,4 C 13,5 C 76 % 1021,5 hPa 0,0 mm 0,3 km/h (0 Bft) S 180 9,3 C 0,0 km/h (0 Bft)
27.06.2015 02:50 13,6 C 13,5 C 76 % 1021,5 hPa 0,0 mm 0,8 km/h (0 Bft) W-SW 247 9,4 C 3,4 km/h (1 Bft)
27.06.2015 02:55 13,7 C 13,6 C 76 % 1021,5 hPa 0,0 mm 1,6 km/h (1 Bft) SW 225 9,5 C 0,0 km/h (0 Bft)
27.06.2015 03:00 13,3 C 13,3 C 76 % 1021,5 hPa 0,0 mm 1,0 km/h (0 Bft) W-SW 247 9,2 C 0,0 km/h (0 Bft)
27.06.2015 03:05 13,1 C 13,1 C 76 % 1021,5 hPa 0,0 mm 0,5 km/h (0 Bft) W-SW 247 9,0 C 0,0 km/h (0 Bft)
27.06.2015 03:10 13,0 C 12,9 C 76 % 1021,5 hPa 0,0 mm 0,0 km/h (0 Bft) S 180 8,9 C 0,0 km/h (0 Bft)
27.06.2015 03:15 12,9 C 12,8 C 77 % 1021,5 hPa 0,0 mm 0,0 km/h (0 Bft) NW 315 9,0 C 0,0 km/h (0 Bft)
27.06.2015 03:20 12,9 C 12,8 C 76 % 1021,5 hPa 0,0 mm 0,0 km/h (0 Bft) N-NW 337 8,8 C 0,0 km/h (0 Bft)
27.06.2015 03:25 12,8 C 12,8 C 76 % 1021,5 hPa 0,0 mm 0,0 km/h (0 Bft) NW 315 8,7 C 0,0 km/h (0 Bft)
27.06.2015 03:30 12,7 C 12,6 C 76 % 1021,5 hPa 0,0 mm 0,0 km/h (0 Bft) W-SW 247 8,6 C 0,0 km/h (0 Bft)
27.06.2015 03:35 12,6 C 12,5 C 77 % 1021,2 hPa 0,0 mm 0,0 km/h (0 Bft) NW 315 8,7 C 0,0 km/h (0 Bft)
27.06.2015 03:40 12,5 C 12,4 C 77 % 1021,2 hPa 0,0 mm 0,0 km/h (0 Bft) N-NO 22 8,6 C 0,0 km/h (0 Bft)
27.06.2015 03:45 12,4 C 12,2 C 77 % 1021,2 hPa 0,0 mm 0,0 km/h (0 Bft) N-NO 22 8,5 C 0,0 km/h (0 Bft)
27.06.2015 03:50 12,2 C 12,0 C 78 % 1021,2 hPa 0,0 mm 0,0 km/h (0 Bft) N-NO 22 8,5 C 0,0 km/h (0 Bft)
27.06.2015 03:55 12,0 C 11,9 C 78 % 1021,2 hPa 0,0 mm 0,0 km/h (0 Bft) N-NO 22 8,3 C 0,0 km/h (0 Bft)
27.06.2015 04:00 12,0 C 11,8 C 78 % 1021,2 hPa 0,0 mm 0,8 km/h (0 Bft) SW 225 8,3 C 7,8 km/h (2 Bft)
27.06.2015 04:05 12,1 C 11,9 C 78 % 1021,2 hPa 0,0 mm 0,8 km/h (0 Bft) S-SW 202 8,4 C 0,0 km/h (0 Bft)
27.06.2015 04:10 11,8 C 11,6 C 78 % 1021,2 hPa 0,0 mm 0,8 km/h (0 Bft) S 180 8,1 C 0,0 km/h (0 Bft)
27.06.2015 04:15 11,6 C 11,4 C 78 % 1021,1 hPa 0,0 mm 0,0 km/h (0 Bft) W 270 7,9 C 0,0 km/h (0 Bft)
27.06.2015 04:20 11,4 C 11,2 C 79 % 1021,1 hPa 0,0 mm 0,0 km/h (0 Bft) S-SW 202 7,9 C 0,0 km/h (0 Bft)
27.06.2015 04:25 11,5 C 11,3 C 79 % 1021,1 hPa 0,0 mm 0,0 km/h (0 Bft) S 180 8,0 C 0,0 km/h (0 Bft)
27.06.2015 04:30 11,2 C 11,0 C 79 % 1021,1 hPa 0,0 mm 0,0 km/h (0 Bft) W-SW 247 7,7 C 0,0 km/h (0 Bft)
27.06.2015 04:35 11,1 C 10,9 C 79 % 1021,2 hPa 0,0 mm 0,0 km/h (0 Bft) W-SW 247 7,6 C 0,0 km/h (0 Bft)
27.06.2015 04:40 11,1 C 10,8 C 79 % 1021,2 hPa 0,0 mm 0,0 km/h (0 Bft) S 180 7,6 C 0,0 km/h (0 Bft)
27.06.2015 04:45 10,9 C 10,7 C 80 % 1021,2 hPa 0,0 mm 0,0 km/h (0 Bft) W 270 7,6 C 0,0 km/h (0 Bft)
27.06.2015 04:50 10,9 C 10,7 C 80 % 1021,2 hPa 0,0 mm 0,0 km/h (0 Bft) W-SW 247 7,6 C 0,0 km/h (0 Bft)
27.06.2015 04:55 10,7 C 10,5 C 81 % 1021,1 hPa 0,0 mm 0,0 km/h (0 Bft) W-SW 247 7,6 C 0,0 km/h (0 Bft)
27.06.2015 05:00 10,7 C 10,5 C 81 % 1021,1 hPa 0,0 mm 0,0 km/h (0 Bft) S 180 7,6 C 0,0 km/h (0 Bft)
27.06.2015 05:05 10,9 C 10,6 C 81 % 1021,1 hPa 0,0 mm 0,0 km/h (0 Bft) W 270 7,8 C 0,0 km/h (0 Bft)
27.06.2015 05:10 10,9 C 10,7 C 82 % 1021,1 hPa 0,0 mm 0,0 km/h (0 Bft) S 180 7,9 C 0,0 km/h (0 Bft)
27.06.2015 05:15 11,0 C 10,8 C 82 % 1020,9 hPa 0,0 mm 0,0 km/h (0 Bft) S 180 8,0 C 0,0 km/h (0 Bft)
27.06.2015 05:20 11,0 C 10,9 C 81 % 1020,9 hPa 0,0 mm 0,0 km/h (0 Bft) S 180 7,9 C 0,0 km/h (0 Bft)
27.06.2015 05:25 11,0 C 10,9 C 82 % 1020,9 hPa 0,0 mm 0,0 km/h (0 Bft) W-SW 247 8,0 C 0,0 km/h (0 Bft)
27.06.2015 05:30 11,2 C 11,1 C 82 % 1020,9 hPa 0,0 mm 0,0 km/h (0 Bft) S 180 8,2 C 0,0 km/h (0 Bft)
27.06.2015 05:35 11,3 C 11,1 C 82 % 1020,8 hPa 0,0 mm 0,0 km/h (0 Bft) S 180 8,3 C 0,0 km/h (0 Bft)
27.06.2015 05:40 11,4 C 11,3 C 82 % 1020,8 hPa 0,0 mm 0,0 km/h (0 Bft) O-SO 112 8,4 C 0,0 km/h (0 Bft)
27.06.2015 05:45 11,5 C 11,4 C 81 % 1020,8 hPa 0,0 mm 0,0 km/h (0 Bft) O-SO 112 8,4 C 0,0 km/h (0 Bft)
27.06.2015 05:50 11,7 C 11,6 C 81 % 1020,8 hPa 0,0 mm 0,0 km/h (0 Bft) O-SO 112 8,5 C 0,0 km/h (0 Bft)
27.06.2015 05:55 11,9 C 11,8 C 81 % 1020,7 hPa 0,0 mm 0,0 km/h (0 Bft) O-SO 112 8,7 C 0,0 km/h (0 Bft)
27.06.2015 06:00 12,0 C 12,1 C 78 % 1020,7 hPa 0,0 mm 0,0 km/h (0 Bft) O 90 8,3 C 0,0 km/h (0 Bft)
27.06.2015 06:05 12,1 C 12,1 C 80 % 1020,7 hPa 0,0 mm 0,0 km/h (0 Bft) O 90 8,8 C 0,0 km/h (0 Bft)
27.06.2015 06:10 12,3 C 12,4 C 79 % 1020,7 hPa 0,0 mm 0,0 km/h (0 Bft) N-NW 337 8,8 C 0,0 km/h (0 Bft)
27.06.2015 06:15 12,3 C 12,5 C 79 % 1020,7 hPa 0,0 mm 0,0 km/h (0 Bft) N-NW 337 8,8 C 0,0 km/h (0 Bft)
27.06.2015 06:20 12,5 C 12,7 C 79 % 1020,7 hPa 0,0 mm 0,0 km/h (0 Bft) N-NW 337 9,0 C 0,0 km/h (0 Bft)
27.06.2015 06:25 12,6 C 12,7 C 79 % 1020,7 hPa 0,0 mm 0,0 km/h (0 Bft) N-NW 337 9,1 C 0,0 km/h (0 Bft)
27.06.2015 06:30 12,7 C 12,8 C 78 % 1020,7 hPa 0,0 mm 0,0 km/h (0 Bft) NW 315 9,0 C 0,0 km/h (0 Bft)
27.06.2015 06:35 12,8 C 13,0 C 78 % 1020,7 hPa 0,0 mm 0,0 km/h (0 Bft) NW 315 9,1 C 0,0 km/h (0 Bft)
27.06.2015 06:40 13,0 C 13,3 C 76 % 1020,7 hPa 0,0 mm 0,3 km/h (0 Bft) S-SW 202 8,9 C 0,0 km/h (0 Bft)
27.06.2015 06:45 13,2 C 13,4 C 76 % 1020,7 hPa 0,0 mm 0,3 km/h (0 Bft) SO 135 9,1 C 0,0 km/h (0 Bft)
27.06.2015 06:50 13,2 C 13,6 C 75 % 1020,7 hPa 0,0 mm 0,0 km/h (0 Bft) SO 135 8,9 C 0,0 km/h (0 Bft)
27.06.2015 06:55 13,3 C 13,6 C 76 % 1020,6 hPa 0,0 mm 0,0 km/h (0 Bft) W-NW 292 9,2 C 0,0 km/h (0 Bft)
27.06.2015 07:00 13,3 C 13,6 C 76 % 1020,6 hPa 0,0 mm 0,0 km/h (0 Bft) W-NW 292 9,2 C 0,0 km/h (0 Bft)
27.06.2015 07:05 13,3 C 13,7 C 76 % 1020,6 hPa 0,0 mm 0,0 km/h (0 Bft) W-NW 292 9,2 C 0,0 km/h (0 Bft)
27.06.2015 07:10 13,4 C 13,8 C 75 % 1020,6 hPa 0,0 mm 0,5 km/h (0 Bft) SO 135 9,1 C 0,0 km/h (0 Bft)
27.06.2015 07:15 13,5 C 14,0 C 76 % 1020,6 hPa 0,0 mm 0,5 km/h (0 Bft) SO 135 9,4 C 0,0 km/h (0 Bft)
27.06.2015 07:20 13,7 C 14,4 C 76 % 1020,6 hPa 0,0 mm 0,0 km/h (0 Bft) SO 135 9,5 C 0,0 km/h (0 Bft)
27.06.2015 07:25 13,9 C 14,8 C 75 % 1020,6 hPa 0,0 mm 0,0 km/h (0 Bft) SO 135 9,5 C 0,0 km/h (0 Bft)
27.06.2015 07:30 14,2 C 15,3 C 75 % 1020,6 hPa 0,0 mm 0,0 km/h (0 Bft) NW 315 9,8 C 0,0 km/h (0 Bft)
27.06.2015 07:35 14,7 C 16,3 C 75 % 1020,6 hPa 0,0 mm 0,0 km/h (0 Bft) NW 315 10,3 C 0,0 km/h (0 Bft)
27.06.2015 07:40 15,3 C 18,1 C 74 % 1020,6 hPa 0,0 mm 0,0 km/h (0 Bft) NW 315 10,7 C 0,0 km/h (0 Bft)
27.06.2015 07:45 15,5 C 18,3 C 73 % 1020,6 hPa 0,0 mm 0,0 km/h (0 Bft) NW 315 10,7 C 0,0 km/h (0 Bft)
27.06.2015 07:50 16,3 C 20,2 C 72 % 1020,6 hPa 0,0 mm 0,0 km/h (0 Bft) SW 225 11,2 C 0,0 km/h (0 Bft)
27.06.2015 07:55 16,7 C 20,6 C 70 % 1020,4 hPa 0,0 mm 0,0 km/h (0 Bft) NW 315 11,2 C 0,0 km/h (0 Bft)
27.06.2015 08:00 16,8 C 20,1 C 70 % 1020,4 hPa 0,0 mm 0,0 km/h (0 Bft) NW 315 11,3 C 0,0 km/h (0 Bft)
27.06.2015 08:05 16,5 C 19,4 C 70 % 1020,4 hPa 0,0 mm 0,0 km/h (0 Bft) O 90 11,0 C 0,0 km/h (0 Bft)
27.06.2015 08:10 16,5 C 19,0 C 70 % 1020,4 hPa 0,0 mm 0,0 km/h (0 Bft) O 90 11,0 C 0,0 km/h (0 Bft)
27.06.2015 08:15 16,7 C 19,1 C 70 % 1020,8 hPa 0,0 mm 0,0 km/h (0 Bft) O 90 11,2 C 0,0 km/h (0 Bft)
27.06.2015 08:20 16,9 C 19,4 C 70 % 1020,8 hPa 0,0 mm 0,0 km/h (0 Bft) O 90 11,4 C 0,0 km/h (0 Bft)
27.06.2015 08:25 17,2 C 19,8 C 70 % 1020,8 hPa 0,0 mm 0,0 km/h (0 Bft) NO 45 11,7 C 0,0 km/h (0 Bft)
27.06.2015 08:30 17,5 C 20,9 C 69 % 1020,8 hPa 0,0 mm 0,0 km/h (0 Bft) NO 45 11,7 C 0,0 km/h (0 Bft)
27.06.2015 08:35 17,6 C 20,9 C 70 % 1020,8 hPa 0,0 mm 0,0 km/h (0 Bft) N-NO 22 12,1 C 0,0 km/h (0 Bft)
27.06.2015 08:40 18,0 C 21,0 C 69 % 1020,8 hPa 0,0 mm 0,0 km/h (0 Bft) O-NO 67 12,2 C 0,0 km/h (0 Bft)
27.06.2015 08:45 18,0 C 21,0 C 69 % 1020,8 hPa 0,0 mm 0,0 km/h (0 Bft) O 90 12,2 C 0,0 km/h (0 Bft)
27.06.2015 08:50 18,0 C 21,0 C 69 % 1020,8 hPa 0,0 mm 0,0 km/h (0 Bft) NW 315 12,2 C 0,0 km/h (0 Bft)
27.06.2015 08:55 18,2 C 21,0 C 68 % 1020,9 hPa 0,0 mm 0,5 km/h (0 Bft) W-NW 292 12,2 C 2,8 km/h (1 Bft)
27.06.2015 09:00 18,4 C 20,7 C 68 % 1020,9 hPa 0,0 mm 0,8 km/h (0 Bft) W-NW 292 12,4 C 0,0 km/h (0 Bft)
27.06.2015 09:05 18,5 C 20,6 C 67 % 1020,9 hPa 0,0 mm 0,5 km/h (0 Bft) NW 315 12,3 C 0,0 km/h (0 Bft)
27.06.2015 09:10 18,6 C 20,5 C 67 % 1020,9 hPa 0,0 mm 0,0 km/h (0 Bft) N-NW 337 12,3 C 0,0 km/h (0 Bft)
27.06.2015 09:15 18,7 C 20,6 C 67 % 1020,9 hPa 0,0 mm 0,0 km/h (0 Bft) N-NW 337 12,4 C 0,0 km/h (0 Bft)
27.06.2015 09:20 18,5 C 20,7 C 68 % 1020,9 hPa 0,0 mm 0,0 km/h (0 Bft) N-NW 337 12,5 C 0,0 km/h (0 Bft)
27.06.2015 09:25 18,3 C 20,6 C 68 % 1020,9 hPa 0,0 mm 0,0 km/h (0 Bft) N-NW 337 12,3 C 0,0 km/h (0 Bft)
27.06.2015 09:30 18,2 C 20,6 C 68 % 1020,9 hPa 0,0 mm 0,0 km/h (0 Bft) N-NW 337 12,2 C 0,0 km/h (0 Bft)
27.06.2015 09:35 18,1 C 20,5 C 68 % 1020,9 hPa 0,0 mm 0,0 km/h (0 Bft) N-NW 337 12,1 C 0,0 km/h (0 Bft)
27.06.2015 09:40 18,4 C 20,4 C 69 % 1020,9 hPa 0,0 mm 0,3 km/h (0 Bft) NW 315 12,6 C 0,0 km/h (0 Bft)
27.06.2015 09:45 18,5 C 20,4 C 69 % 1020,9 hPa 0,0 mm 0,3 km/h (0 Bft) N-NO 22 12,7 C 0,0 km/h (0 Bft)
27.06.2015 09:50 18,5 C 20,6 C 69 % 1020,9 hPa 0,0 mm 0,0 km/h (0 Bft) N-NO 22 12,7 C 0,0 km/h (0 Bft)
27.06.2015 09:55 18,5 C 20,6 C 69 % 1020,8 hPa 0,0 mm 0,0 km/h (0 Bft) N-NO 22 12,7 C 0,0 km/h (0 Bft)
27.06.2015 10:00 18,6 C 20,8 C 69 % 1020,8 hPa 0,0 mm 0,0 km/h (0 Bft) N-NO 22 12,8 C 0,0 km/h (0 Bft)
27.06.2015 10:05 18,6 C 20,8 C 69 % 1020,8 hPa 0,0 mm 0,0 km/h (0 Bft) N-NO 22 12,8 C 0,0 km/h (0 Bft)
27.06.2015 10:10 18,5 C 20,8 C 69 % 1020,8 hPa 0,0 mm 0,3 km/h (0 Bft) S 180 12,7 C 0,0 km/h (0 Bft)
27.06.2015 10:15 18,5 C 20,8 C 69 % 1020,8 hPa 0,0 mm 0,3 km/h (0 Bft) S 180 12,7 C 2,6 km/h (1 Bft)
27.06.2015 10:20 18,4 C 20,6 C 68 % 1020,8 hPa 0,0 mm 0,3 km/h (0 Bft) S 180 12,4 C 0,0 km/h (0 Bft)
27.06.2015 10:25 18,3 C 20,7 C 68 % 1020,8 hPa 0,0 mm 0,3 km/h (0 Bft) S 180 12,3 C 0,0 km/h (0 Bft)
27.06.2015 10:30 18,6 C 20,9 C 68 % 1020,8 hPa 0,0 mm 0,0 km/h (0 Bft) W-NW 292 12,6 C 0,0 km/h (0 Bft)
27.06.2015 10:35 18,6 C 21,0 C 68 % 1020,8 hPa 0,0 mm 0,0 km/h (0 Bft) O 90 12,6 C 0,0 km/h (0 Bft)
27.06.2015 10:40 18,9 C 21,4 C 68 % 1020,8 hPa 0,0 mm 0,3 km/h (0 Bft) S-SW 202 12,9 C 0,0 km/h (0 Bft)
27.06.2015 10:45 18,9 C 21,3 C 68 % 1020,8 hPa 0,0 mm 0,3 km/h (0 Bft) W 270 12,9 C 0,0 km/h (0 Bft)
27.06.2015 10:50 18,7 C 21,1 C 68 % 1020,8 hPa 0,0 mm 0,3 km/h (0 Bft) S 180 12,7 C 0,0 km/h (0 Bft)
27.06.2015 10:55 18,8 C 21,1 C 69 % 1020,8 hPa 0,0 mm 0,0 km/h (0 Bft) W 270 13,0 C 0,0 km/h (0 Bft)
27.06.2015 11:00 19,1 C 21,2 C 69 % 1020,8 hPa 0,0 mm 0,8 km/h (0 Bft) W 270 13,3 C 3,9 km/h (1 Bft)
27.06.2015 11:05 19,2 C 21,2 C 69 % 1020,8 hPa 0,0 mm 1,3 km/h (1 Bft) N 360 13,4 C 0,0 km/h (0 Bft)
27.06.2015 11:10 19,5 C 21,6 C 69 % 1020,8 hPa 0,0 mm 1,0 km/h (0 Bft) N-NO 22 13,7 C 0,0 km/h (0 Bft)
27.06.2015 11:15 19,6 C 22,0 C 68 % 1020,8 hPa 0,0 mm 0,3 km/h (0 Bft) N-NO 22 13,5 C 0,0 km/h (0 Bft)
27.06.2015 11:20 19,8 C 22,7 C 67 % 1020,8 hPa 0,0 mm 0,0 km/h (0 Bft) N-NO 22 13,5 C 0,0 km/h (0 Bft)
27.06.2015 11:25 20,0 C 23,2 C 67 % 1020,8 hPa 0,0 mm 0,0 km/h (0 Bft) N-NO 22 13,7 C 0,0 km/h (0 Bft)
27.06.2015 11:30 20,6 C 24,1 C 66 % 1020,8 hPa 0,0 mm 0,0 km/h (0 Bft) N-NO 22 14,0 C 0,0 km/h (0 Bft)
27.06.2015 11:35 21,0 C 24,9 C 65 % 1020,6 hPa 0,0 mm 0,0 km/h (0 Bft) N-NO 22 14,2 C 0,0 km/h (0 Bft)
27.06.2015 11:40 21,3 C 26,1 C 61 % 1020,6 hPa 0,0 mm 1,0 km/h (0 Bft) N-NO 22 13,5 C 0,0 km/h (0 Bft)
27.06.2015 11:45 21,3 C 26,2 C 60 % 1020,6 hPa 0,0 mm 2,6 km/h (1 Bft) N-NW 337 13,2 C 4,1 km/h (1 Bft)
27.06.2015 11:50 21,9 C 26,6 C 60 % 1020,6 hPa 0,0 mm 3,9 km/h (1 Bft) N-NO 22 13,8 C 4,9 km/h (1 Bft)
27.06.2015 11:55 22,0 C 26,4 C 59 % 1020,6 hPa 0,0 mm 3,4 km/h (1 Bft) N-NO 22 13,6 C 0,0 km/h (0 Bft)
27.06.2015 12:00 22,2 C 26,7 C 59 % 1020,6 hPa 0,0 mm 2,1 km/h (1 Bft) N-NO 22 13,8 C 0,0 km/h (0 Bft)
27.06.2015 12:05 22,2 C 26,6 C 58 % 1020,6 hPa 0,0 mm 1,3 km/h (1 Bft) S 180 13,5 C 0,0 km/h (0 Bft)
27.06.2015 12:10 22,2 C 26,0 C 59 % 1020,6 hPa 0,0 mm 2,3 km/h (1 Bft) W 270 13,8 C 3,9 km/h (1 Bft)
27.06.2015 12:15 22,2 C 25,6 C 58 % 1020,9 hPa 0,0 mm 3,6 km/h (1 Bft) S-SO 157 13,5 C 0,0 km/h (0 Bft)
27.06.2015 12:20 22,1 C 25,2 C 58 % 1020,9 hPa 0,0 mm 3,9 km/h (1 Bft) NW 315 13,4 C 4,1 km/h (1 Bft)
27.06.2015 12:25 21,9 C 24,9 C 57 % 1020,9 hPa 0,0 mm 4,4 km/h (1 Bft) NW 315 13,0 C 7,0 km/h (2 Bft)
27.06.2015 12:30 21,7 C 24,1 C 57 % 1020,9 hPa 0,0 mm 5,2 km/h (1 Bft) NW 315 12,8 C 16,3 km/h (3 Bft)
27.06.2015 12:35 21,6 C 23,7 C 57 % 1020,8 hPa 0,0 mm 4,7 km/h (1 Bft) W 270 12,7 C 7,0 km/h (2 Bft)
27.06.2015 12:40 21,4 C 23,4 C 58 % 1020,8 hPa 0,0 mm 4,7 km/h (1 Bft) W-NW 292 12,8 C 0,0 km/h (0 Bft)
27.06.2015 12:45 21,3 C 23,1 C 58 % 1020,8 hPa 0,0 mm 3,6 km/h (1 Bft) NW 315 12,7 C 7,0 km/h (2 Bft)
27.06.2015 12:50 21,2 C 22,9 C 58 % 1020,8 hPa 0,0 mm 1,8 km/h (1 Bft) W 270 12,6 C 0,0 km/h (0 Bft)
27.06.2015 12:55 21,1 C 22,7 C 59 % 1020,8 hPa 0,0 mm 1,0 km/h (0 Bft) W 270 12,8 C 0,0 km/h (0 Bft)
27.06.2015 13:00 21,0 C 22,5 C 59 % 1020,8 hPa 0,0 mm 1,8 km/h (1 Bft) W-NW 292 12,7 C 2,6 km/h (1 Bft)
27.06.2015 13:05 21,0 C 22,6 C 59 % 1020,8 hPa 0,0 mm 1,8 km/h (1 Bft) N-NW 337 12,7 C 0,0 km/h (0 Bft)
27.06.2015 13:10 21,2 C 22,9 C 59 % 1020,8 hPa 0,0 mm 1,0 km/h (0 Bft) N-NW 337 12,9 C 0,0 km/h (0 Bft)
27.06.2015 13:15 21,2 C 23,1 C 59 % 1020,8 hPa 0,0 mm 1,6 km/h (1 Bft) NW 315 12,9 C 0,0 km/h (0 Bft)
27.06.2015 13:20 21,3 C 23,2 C 59 % 1020,8 hPa 0,0 mm 2,6 km/h (1 Bft) NW 315 13,0 C 4,9 km/h (1 Bft)
27.06.2015 13:25 21,1 C 22,8 C 59 % 1020,8 hPa 0,0 mm 4,9 km/h (1 Bft) NW 315 12,8 C 17,9 km/h (3 Bft)
27.06.2015 13:30 22,0 C 24,1 C 58 % 1020,8 hPa 0,0 mm 9,1 km/h (2 Bft) N-NW 337 13,3 C 12,9 km/h (3 Bft)
27.06.2015 13:35 22,5 C 25,2 C 58 % 1020,9 hPa 0,0 mm 10,1 km/h (2 Bft) NW 315 13,8 C 17,3 km/h (3 Bft)
27.06.2015 13:40 23,1 C 26,8 C 56 % 1020,9 hPa 0,0 mm 10,6 km/h (2 Bft) W-NW 292 13,8 C 21,2 km/h (4 Bft)
27.06.2015 13:45 22,9 C 26,4 C 56 % 1020,9 hPa 0,0 mm 12,4 km/h (3 Bft) NW 315 13,6 C 22,3 km/h (4 Bft)
27.06.2015 13:50 22,7 C 25,8 C 56 % 1020,9 hPa 0,0 mm 14,8 km/h (3 Bft) NW 315 13,5 C 26,9 km/h (4 Bft)
27.06.2015 13:55 23,0 C 25,8 C 55 % 1020,9 hPa 0,0 mm 13,7 km/h (3 Bft) W-NW 292 13,5 C 13,7 km/h (3 Bft)
27.06.2015 14:00 23,4 C 26,7 C 54 % 1020,9 hPa 0,0 mm 12,7 km/h (3 Bft) NW 315 13,6 C 21,2 km/h (4 Bft)
27.06.2015 14:05 23,4 C 26,9 C 53 % 1020,9 hPa 0,0 mm 14,0 km/h (3 Bft) W-NW 292 13,3 C 14,5 km/h (3 Bft)
27.06.2015 14:10 22,6 C 25,5 C 55 % 1020,9 hPa 0,0 mm 12,7 km/h (3 Bft) N-NW 337 13,1 C 38,6 km/h (5 Bft)
27.06.2015 14:15 21,4 C 23,8 C 55 % 1021,1 hPa 0,0 mm 13,5 km/h (3 Bft) N-NW 337 12,0 C 25,9 km/h (4 Bft)
27.06.2015 14:20 20,2 C 21,2 C 56 % 1021,1 hPa 0,0 mm 17,9 km/h (3 Bft) NO 45 11,1 C 24,3 km/h (4 Bft)
27.06.2015 14:25 19,1 C 19,2 C 60 % 1021,1 hPa 0,0 mm 19,4 km/h (3 Bft) NW 315 11,1 C 23,3 km/h (4 Bft)
27.06.2015 14:30 17,5 C 17,5 C 69 % 1021,1 hPa 0,7 mm 17,6 km/h (3 Bft) W-NW 292 11,7 C 38,8 km/h (5 Bft)
27.06.2015 14:35 16,7 C 16,3 C 73 % 1021,8 hPa 0,7 mm 16,6 km/h (3 Bft) S-SO 157 11,8 C 15,0 km/h (3 Bft)
27.06.2015 14:40 16,4 C 15,9 C 74 % 1021,8 hPa 0,0 mm 11,7 km/h (2 Bft) O 90 11,8 C 6,7 km/h (2 Bft)
27.06.2015 14:45 16,3 C 15,8 C 74 % 1021,8 hPa 0,0 mm 5,7 km/h (1 Bft) SW 225 11,7 C 7,0 km/h (2 Bft)
27.06.2015 14:50 16,3 C 15,8 C 76 % 1021,8 hPa 0,0 mm 3,1 km/h (1 Bft) W-SW 247 12,1 C 10,4 km/h (2 Bft)
27.06.2015 14:55 16,2 C 15,8 C 78 % 1021,8 hPa 0,0 mm 4,9 km/h (1 Bft) S 180 12,4 C 0,0 km/h (0 Bft)
27.06.2015 15:00 16,2 C 15,9 C 78 % 1021,8 hPa 0,7 mm 6,0 km/h (2 Bft) SW 225 12,4 C 9,8 km/h (2 Bft)
27.06.2015 15:05 16,1 C 15,8 C 78 % 1021,8 hPa 0,0 mm 4,4 km/h (1 Bft) W-SW 247 12,3 C 3,1 km/h (1 Bft)
27.06.2015 15:10 16,0 C 15,7 C 78 % 1021,8 hPa 0,0 mm 2,1 km/h (1 Bft) SW 225 12,2 C 0,0 km/h (0 Bft)
27.06.2015 15:15 15,9 C 15,6 C 79 % 1022,1 hPa 0,0 mm 1,0 km/h (0 Bft) S-SW 202 12,3 C 5,7 km/h (1 Bft)
27.06.2015 15:20 15,6 C 15,4 C 80 % 1022,1 hPa 0,0 mm 2,6 km/h (1 Bft) SW 225 12,2 C 0,0 km/h (0 Bft)
27.06.2015 15:25 15,6 C 15,4 C 80 % 1022,1 hPa 0,7 mm 2,1 km/h (1 Bft) S 180 12,2 C 3,4 km/h (1 Bft)
27.06.2015 15:30 15,4 C 15,2 C 81 % 1022,1 hPa 0,0 mm 1,0 km/h (0 Bft) S 180 12,2 C 7,3 km/h (2 Bft)
27.06.2015 15:35 15,3 C 15,1 C 82 % 1022,0 hPa 0,7 mm 3,1 km/h (1 Bft) W-SW 247 12,2 C 6,2 km/h (2 Bft)
27.06.2015 15:40 15,2 C 15,0 C 83 % 1022,0 hPa 0,0 mm 4,4 km/h (1 Bft) S 180 12,3 C 6,5 km/h (2 Bft)
27.06.2015 15:45 15,2 C 15,1 C 79 % 1022,0 hPa 0,0 mm 2,6 km/h (1 Bft) O 90 11,6 C 0,0 km/h (0 Bft)
27.06.2015 15:50 15,3 C 15,6 C 79 % 1022,0 hPa 0,0 mm 0,8 km/h (0 Bft) SW 225 11,7 C 0,0 km/h (0 Bft)
27.06.2015 15:55 15,6 C 16,2 C 80 % 1021,1 hPa 0,0 mm 0,5 km/h (0 Bft) N-NW 337 12,2 C 6,0 km/h (2 Bft)
27.06.2015 16:00 16,2 C 17,0 C 80 % 1021,1 hPa 0,0 mm 1,6 km/h (1 Bft) N 360 12,7 C 7,5 km/h (2 Bft)
27.06.2015 16:05 16,6 C 17,7 C 80 % 1021,1 hPa 0,0 mm 2,3 km/h (1 Bft) W 270 13,1 C 9,3 km/h (2 Bft)
27.06.2015 16:10 17,2 C 19,5 C 80 % 1021,1 hPa 0,0 mm 3,1 km/h (1 Bft) N 360 13,7 C 5,4 km/h (1 Bft)
27.06.2015 16:15 17,6 C 21,2 C 80 % 1020,6 hPa 0,0 mm 3,6 km/h (1 Bft) W-NW 292 14,1 C 6,0 km/h (2 Bft)
27.06.2015 16:20 17,3 C 21,5 C 79 % 1020,6 hPa 0,0 mm 5,7 km/h (1 Bft) S-SW 202 13,6 C 11,9 km/h (2 Bft)
27.06.2015 16:25 17,2 C 21,4 C 79 % 1020,6 hPa 0,0 mm 6,2 km/h (2 Bft) S-SO 157 13,5 C 0,0 km/h (0 Bft)
27.06.2015 16:30 17,5 C 22,7 C 79 % 1020,6 hPa 0,0 mm 4,1 km/h (1 Bft) SO 135 13,8 C 2,6 km/h (1 Bft)
27.06.2015 16:35 17,8 C 23,8 C 79 % 1020,4 hPa 0,0 mm 2,1 km/h (1 Bft) W-SW 247 14,1 C 8,5 km/h (2 Bft)
27.06.2015 16:40 18,0 C 24,2 C 78 % 1020,4 hPa 0,0 mm 3,4 km/h (1 Bft) W 270 14,1 C 6,7 km/h (2 Bft)
27.06.2015 16:45 18,2 C 24,2 C 78 % 1020,4 hPa 0,0 mm 4,7 km/h (1 Bft) SW 225 14,3 C 6,7 km/h (2 Bft)
27.06.2015 16:50 18,5 C 23,3 C 77 % 1020,4 hPa 0,0 mm 4,4 km/h (1 Bft) NW 315 14,4 C 4,9 km/h (1 Bft)
27.06.2015 16:55 18,7 C 22,7 C 76 % 1020,6 hPa 0,0 mm 5,2 km/h (1 Bft) W-SW 247 14,4 C 4,7 km/h (1 Bft)
27.06.2015 17:00 18,8 C 22,3 C 76 % 1020,6 hPa 0,0 mm 6,0 km/h (2 Bft) S 180 14,5 C 6,7 km/h (2 Bft)
27.06.2015 17:05 19,1 C 22,7 C 76 % 1020,6 hPa 0,0 mm 4,9 km/h (1 Bft) N-NW 337 14,8 C 3,6 km/h (1 Bft)
27.06.2015 17:10 19,7 C 23,5 C 74 % 1020,6 hPa 0,0 mm 4,4 km/h (1 Bft) W-SW 247 14,9 C 14,2 km/h (3 Bft)
27.06.2015 17:15 20,0 C 23,7 C 74 % 1020,6 hPa 0,0 mm 4,1 km/h (1 Bft) S 180 15,2 C 0,0 km/h (0 Bft)
27.06.2015 17:20 20,3 C 23,9 C 73 % 1020,6 hPa 0,0 mm 3,6 km/h (1 Bft) S-SW 202 15,3 C 4,9 km/h (1 Bft)
27.06.2015 17:25 20,2 C 23,6 C 71 % 1020,6 hPa 0,0 mm 4,7 km/h (1 Bft) S 180 14,8 C 7,0 km/h (2 Bft)
27.06.2015 17:30 20,2 C 23,2 C 71 % 1020,6 hPa 0,0 mm 4,4 km/h (1 Bft) W 270 14,8 C 0,0 km/h (0 Bft)
27.06.2015 17:35 20,2 C 23,2 C 70 % 1020,6 hPa 0,0 mm 3,4 km/h (1 Bft) NW 315 14,5 C 4,9 km/h (1 Bft)
27.06.2015 17:40 20,2 C 22,7 C 70 % 1020,6 hPa 0,0 mm 3,4 km/h (1 Bft) W-SW 247 14,5 C 3,4 km/h (1 Bft)
27.06.2015 17:45 20,0 C 22,2 C 69 % 1020,6 hPa 0,0 mm 2,6 km/h (1 Bft) S-SW 202 14,1 C 3,6 km/h (1 Bft)
27.06.2015 17:50 19,4 C 21,2 C 69 % 1020,6 hPa 0,0 mm 1,6 km/h (1 Bft) S 180 13,6 C 0,0 km/h (0 Bft)
27.06.2015 17:55 19,1 C 20,6 C 69 % 1020,6 hPa 0,0 mm 1,8 km/h (1 Bft) S 180 13,3 C 6,0 km/h (2 Bft)
27.06.2015 18:00 18,8 C 19,8 C 69 % 1020,6 hPa 0,0 mm 3,6 km/h (1 Bft) SW 225 13,0 C 4,1 km/h (1 Bft)
27.06.2015 18:05 18,6 C 19,4 C 69 % 1020,6 hPa 0,0 mm 4,1 km/h (1 Bft) SW 225 12,8 C 6,5 km/h (2 Bft)
27.06.2015 18:10 18,3 C 19,0 C 69 % 1020,6 hPa 0,0 mm 4,7 km/h (1 Bft) SW 225 12,5 C 6,5 km/h (2 Bft)
27.06.2015 18:15 18,0 C 18,4 C 69 % 1020,7 hPa 0,0 mm 6,0 km/h (2 Bft) SW 225 12,2 C 9,1 km/h (2 Bft)
27.06.2015 18:20 17,6 C 17,7 C 69 % 1020,7 hPa 0,0 mm 8,5 km/h (2 Bft) O 90 11,8 C 15,3 km/h (3 Bft)
27.06.2015 18:25 17,4 C 17,6 C 70 % 1020,7 hPa 0,0 mm 9,1 km/h (2 Bft) S-SO 157 11,9 C 3,9 km/h (1 Bft)
27.06.2015 18:30 16,8 C 16,9 C 74 % 1020,7 hPa 0,0 mm 4,4 km/h (1 Bft) W-SW 247 12,1 C 2,8 km/h (1 Bft)
27.06.2015 18:35 16,7 C 16,7 C 74 % 1020,6 hPa 0,0 mm 1,8 km/h (1 Bft) S 180 12,0 C 3,9 km/h (1 Bft)
27.06.2015 18:40 16,6 C 16,7 C 76 % 1020,6 hPa 0,0 mm 3,6 km/h (1 Bft) SW 225 12,3 C 4,9 km/h (1 Bft)
27.06.2015 18:45 16,5 C 16,7 C 76 % 1020,6 hPa 0,0 mm 3,9 km/h (1 Bft) S 180 12,3 C 0,0 km/h (0 Bft)
27.06.2015 17:58 18,8 C 19,8 C 69 % 1020,6 hPa 0,0 mm 3,6 km/h (1 Bft) SW 225 13,0 C 4,1 km/h (1 Bft)
27.06.2015 18:03 18,6 C 19,4 C 69 % 1020,6 hPa 0,0 mm 4,1 km/h (1 Bft) SW 225 12,8 C 6,5 km/h (2 Bft)
27.06.2015 18:08 18,3 C 19,0 C 69 % 1020,6 hPa 0,0 mm 4,7 km/h (1 Bft) SW 225 12,5 C 6,5 km/h (2 Bft)
27.06.2015 18:13 18,0 C 18,4 C 69 % 1020,7 hPa 0,0 mm 6,0 km/h (2 Bft) SW 225 12,2 C 9,1 km/h (2 Bft)
27.06.2015 18:18 17,6 C 17,7 C 69 % 1020,7 hPa 0,0 mm 8,5 km/h (2 Bft) O 90 11,8 C 15,3 km/h (3 Bft)
27.06.2015 18:23 17,4 C 17,6 C 70 % 1020,7 hPa 0,0 mm 9,1 km/h (2 Bft) S-SO 157 11,9 C 3,9 km/h (1 Bft)
27.06.2015 18:28 16,8 C 16,9 C 74 % 1020,7 hPa 0,0 mm 4,4 km/h (1 Bft) W-SW 247 12,1 C 2,8 km/h (1 Bft)
27.06.2015 18:33 16,7 C 16,7 C 74 % 1020,6 hPa 0,0 mm 1,8 km/h (1 Bft) S 180 12,0 C 3,9 km/h (1 Bft)
27.06.2015 18:38 16,6 C 16,7 C 76 % 1020,6 hPa 0,0 mm 3,6 km/h (1 Bft) SW 225 12,3 C 4,9 km/h (1 Bft)
27.06.2015 18:43 16,5 C 16,7 C 76 % 1020,6 hPa 0,0 mm 3,9 km/h (1 Bft) S 180 12,3 C 0,0 km/h (0 Bft)
27.06.2015 18:48 16,4 C 16,3 C 76 % 1020,6 hPa 0,0 mm 2,3 km/h (1 Bft) W 270 12,2 C 0,0 km/h (0 Bft)
27.06.2015 18:53 16,4 C 16,3 C 76 % 1020,6 hPa 0,0 mm 2,3 km/h (1 Bft) W 270 12,2 C 0,0 km/h (0 Bft)
27.06.2015 18:54 16,3 C 16,2 C 76 % 1020,8 hPa 0,0 mm 1,6 km/h (1 Bft) NW 315 12,1 C 0,0 km/h (0 Bft)
27.06.2015 19:00 16,0 C 15,9 C 77 % 1020,8 hPa 0,0 mm 0,8 km/h (0 Bft) S 180 12,0 C 4,1 km/h (1 Bft)
27.06.2015 19:05 16,1 C 15,8 C 78 % 1020,8 hPa 0,0 mm 3,9 km/h (1 Bft) O-NO 67 12,3 C 12,7 km/h (3 Bft)
27.06.2015 19:10 16,0 C 15,7 C 77 % 1020,8 hPa 0,0 mm 6,5 km/h (2 Bft) S-SO 157 12,0 C 13,5 km/h (3 Bft)
27.06.2015 19:15 15,8 C 15,4 C 77 % 1021,0 hPa 0,7 mm 5,2 km/h (1 Bft) SW 225 11,8 C 2,6 km/h (1 Bft)
27.06.2015 19:20 15,2 C 14,9 C 77 % 1021,0 hPa 0,0 mm 3,4 km/h (1 Bft) SO 135 11,2 C 0,0 km/h (0 Bft)
27.06.2015 19:25 14,8 C 14,5 C 78 % 1021,0 hPa 0,0 mm 1,8 km/h (1 Bft) W-NW 292 11,0 C 8,3 km/h (2 Bft)
27.06.2015 19:30 15,2 C 14,7 C 81 % 1021,0 hPa 0,0 mm 6,2 km/h (2 Bft) N-NO 22 12,0 C 14,8 km/h (3 Bft)
27.06.2015 19:35 15,2 C 14,8 C 82 % 1022,2 hPa 0,7 mm 9,3 km/h (2 Bft) N-NW 337 12,1 C 8,0 km/h (2 Bft)
27.06.2015 19:40 14,6 C 14,3 C 83 % 1022,2 hPa 0,7 mm 7,5 km/h (2 Bft) S-SW 202 11,7 C 7,8 km/h (2 Bft)
27.06.2015 19:45 14,4 C 14,2 C 84 % 1022,2 hPa 2,1 mm 7,8 km/h (2 Bft) W-SW 247 11,7 C 6,2 km/h (2 Bft)
27.06.2015 19:50 14,0 C 13,9 C 84 % 1022,2 hPa 1,4 mm 8,0 km/h (2 Bft) S-SO 157 11,3 C 5,7 km/h (1 Bft)
27.06.2015 19:55 13,7 C 13,6 C 84 % 1021,7 hPa 0,0 mm 4,7 km/h (1 Bft) S 180 11,0 C 2,6 km/h (1 Bft)
27.06.2015 20:00 13,5 C 13,3 C 85 % 1021,7 hPa 0,7 mm 6,0 km/h (2 Bft) SO 135 11,0 C 3,1 km/h (1 Bft)
27.06.2015 20:05 13,5 C 13,3 C 85 % 1021,7 hPa 0,0 mm 5,2 km/h (1 Bft) S 180 11,0 C 5,7 km/h (1 Bft)
27.06.2015 20:10 13,5 C 13,3 C 85 % 1021,7 hPa 0,0 mm 3,1 km/h (1 Bft) O-SO 112 11,0 C 2,6 km/h (1 Bft)
27.06.2015 20:15 13,5 C 13,4 C 86 % 1021,4 hPa 0,0 mm 2,8 km/h (1 Bft) SO 135 11,2 C 0,0 km/h (0 Bft)
27.06.2015 20:20 13,4 C 13,3 C 86 % 1021,4 hPa 0,0 mm 0,8 km/h (0 Bft) S 180 11,1 C 0,0 km/h (0 Bft)
27.06.2015 20:25 13,4 C 13,3 C 86 % 1021,4 hPa 0,0 mm 1,8 km/h (1 Bft) W-SW 247 11,1 C 0,0 km/h (0 Bft)
27.06.2015 20:30 13,6 C 13,6 C 82 % 1021,4 hPa 0,7 mm 1,8 km/h (1 Bft) S-SO 157 10,6 C 0,0 km/h (0 Bft)
27.06.2015 20:35 13,7 C 13,7 C 83 % 1021,5 hPa 0,0 mm 0,5 km/h (0 Bft) W 270 10,9 C 0,0 km/h (0 Bft)
27.06.2015 20:40 13,7 C 13,8 C 83 % 1021,5 hPa 0,0 mm 0,0 km/h (0 Bft) S-SO 157 10,9 C 0,0 km/h (0 Bft)
27.06.2015 20:45 13,7 C 13,8 C 83 % 1021,5 hPa 0,0 mm 0,0 km/h (0 Bft) W 270 10,9 C 0,0 km/h (0 Bft)
27.06.2015 20:50 13,5 C 13,8 C 86 % 1021,5 hPa 0,0 mm 0,3 km/h (0 Bft) SW 225 11,2 C 7,8 km/h (2 Bft)
27.06.2015 20:55 13,3 C 13,7 C 86 % 1021,7 hPa 0,0 mm 0,8 km/h (0 Bft) SW 225 11,0 C 0,0 km/h (0 Bft)
27.06.2015 21:00 13,2 C 13,5 C 86 % 1021,7 hPa 0,0 mm 2,1 km/h (1 Bft) S 180 10,9 C 4,9 km/h (1 Bft)
27.06.2015 21:05 13,0 C 13,3 C 86 % 1021,7 hPa 0,0 mm 1,8 km/h (1 Bft) SO 135 10,7 C 0,0 km/h (0 Bft)
27.06.2015 21:10 12,9 C 12,9 C 88 % 1021,7 hPa 0,0 mm 0,8 km/h (0 Bft) O-NO 67 11,0 C 0,0 km/h (0 Bft)
27.06.2015 21:15 12,9 C 12,9 C 88 % 1021,9 hPa 0,0 mm 1,0 km/h (0 Bft) W-SW 247 11,0 C 0,0 km/h (0 Bft)
27.06.2015 21:20 13,0 C 12,9 C 88 % 1021,9 hPa 0,0 mm 0,8 km/h (0 Bft) S 180 11,1 C 4,9 km/h (1 Bft)
27.06.2015 21:25 13,0 C 12,9 C 88 % 1021,9 hPa 0,0 mm 0,8 km/h (0 Bft) S-SO 157 11,1 C 0,0 km/h (0 Bft)
27.06.2015 21:30 13,1 C 12,9 C 88 % 1021,9 hPa 0,0 mm 3,6 km/h (1 Bft) O-SO 112 11,2 C 3,6 km/h (1 Bft)
27.06.2015 21:35 13,1 C 13,0 C 88 % 1022,2 hPa 0,0 mm 3,4 km/h (1 Bft) N-NO 22 11,2 C 0,0 km/h (0 Bft)
27.06.2015 21:40 13,0 C 12,9 C 88 % 1022,2 hPa 0,0 mm 1,0 km/h (0 Bft) O-SO 112 11,1 C 0,0 km/h (0 Bft)
27.06.2015 21:45 13,1 C 13,0 C 88 % 1022,2 hPa 0,0 mm 1,3 km/h (1 Bft) S-SO 157 11,2 C 2,8 km/h (1 Bft)
27.06.2015 21:50 13,1 C 13,0 C 89 % 1022,2 hPa 0,0 mm 1,6 km/h (1 Bft) SO 135 11,3 C 3,6 km/h (1 Bft)
27.06.2015 21:55 13,1 C 13,0 C 89 % 1022,4 hPa 0,0 mm 1,8 km/h (1 Bft) O 90 11,3 C 4,7 km/h (1 Bft)
27.06.2015 21:58 13,0 C 12,9 C 89 % 1022,4 hPa 0,0 mm 1,3 km/h (1 Bft) S-SO 157 11,2 C 0,0 km/h (0 Bft)
27.06.2015 22:00 13,0 C 12,9 C 89 % 1022,4 hPa 0,0 mm 1,3 km/h (1 Bft) S-SO 157 11,2 C 0,0 km/h (0 Bft)
27.06.2015 22:05 13,0 C 12,9 C 89 % 1022,4 hPa 0,0 mm 1,0 km/h (0 Bft) S-SO 157 11,2 C 0,0 km/h (0 Bft)
27.06.2015 22:10 13,1 C 13,0 C 89 % 1022,4 hPa 0,0 mm 0,3 km/h (0 Bft) S-SO 157 11,3 C 0,0 km/h (0 Bft)
27.06.2015 22:15 13,0 C 12,9 C 89 % 1022,7 hPa 0,0 mm 0,5 km/h (0 Bft) SO 135 11,2 C 0,0 km/h (0 Bft)
27.06.2015 22:20 12,8 C 12,7 C 89 % 1022,7 hPa 0,0 mm 0,5 km/h (0 Bft) S-SW 202 11,0 C 0,0 km/h (0 Bft)
27.06.2015 22:25 12,7 C 12,6 C 89 % 1022,7 hPa 0,0 mm 0,5 km/h (0 Bft) W 270 10,9 C 2,6 km/h (1 Bft)
27.06.2015 22:30 12,7 C 12,6 C 89 % 1022,7 hPa 0,0 mm 3,1 km/h (1 Bft) S-SW 202 10,9 C 12,7 km/h (3 Bft)
27.06.2015 22:35 12,7 C 12,6 C 89 % 1022,6 hPa 0,0 mm 3,6 km/h (1 Bft) O-SO 112 10,9 C 0,0 km/h (0 Bft)
27.06.2015 22:40 12,6 C 12,5 C 89 % 1022,6 hPa 0,0 mm 2,1 km/h (1 Bft) NW 315 10,8 C 3,9 km/h (1 Bft)
27.06.2015 22:45 12,7 C 12,6 C 89 % 1022,6 hPa 0,0 mm 0,8 km/h (0 Bft) W-SW 247 10,9 C 0,0 km/h (0 Bft)
27.06.2015 22:50 12,8 C 12,7 C 90 % 1022,6 hPa 0,0 mm 2,1 km/h (1 Bft) SW 225 11,2 C 5,4 km/h (1 Bft)
27.06.2015 22:55 12,9 C 12,8 C 90 % 1022,8 hPa 0,0 mm 2,3 km/h (1 Bft) NW 315 11,3 C 0,0 km/h (0 Bft)
27.06.2015 23:00 13,0 C 12,9 C 89 % 1022,8 hPa 0,0 mm 1,6 km/h (1 Bft) W-SW 247 11,2 C 0,0 km/h (0 Bft)
27.06.2015 23:05 12,9 C 12,8 C 90 % 1022,8 hPa 0,0 mm 1,3 km/h (1 Bft) N-NW 337 11,3 C 4,9 km/h (1 Bft)
27.06.2015 23:10 12,8 C 12,7 C 90 % 1022,8 hPa 0,0 mm 1,6 km/h (1 Bft) S-SO 157 11,2 C 2,6 km/h (1 Bft)
27.06.2015 23:15 12,8 C 12,7 C 90 % 1023,0 hPa 0,0 mm 2,3 km/h (1 Bft) NO 45 11,2 C 0,0 km/h (0 Bft)
27.06.2015 23:20 12,8 C 12,7 C 90 % 1023,0 hPa 0,0 mm 2,6 km/h (1 Bft) S-SO 157 11,2 C 3,6 km/h (1 Bft)
27.06.2015 23:25 12,8 C 12,7 C 90 % 1023,0 hPa 0,0 mm 1,6 km/h (1 Bft) NO 45 11,2 C 0,0 km/h (0 Bft)
27.06.2015 23:30 12,8 C 12,7 C 91 % 1023,0 hPa 0,0 mm 0,5 km/h (0 Bft) S-SO 157 11,4 C 0,0 km/h (0 Bft)
27.06.2015 23:35 12,9 C 12,8 C 91 % 1023,1 hPa 0,0 mm 0,8 km/h (0 Bft) O-NO 67 11,5 C 0,0 km/h (0 Bft)
27.06.2015 23:40 13,0 C 12,9 C 90 % 1023,1 hPa 0,0 mm 1,3 km/h (1 Bft) S 180 11,4 C 6,7 km/h (2 Bft)
27.06.2015 23:45 13,2 C 13,1 C 86 % 1023,1 hPa 0,0 mm 2,3 km/h (1 Bft) S-SO 157 10,9 C 0,0 km/h (0 Bft)
27.06.2015 23:50 13,3 C 13,2 C 90 % 1023,1 hPa 0,0 mm 1,6 km/h (1 Bft) SO 135 11,7 C 0,0 km/h (0 Bft)
27.06.2015 23:55 13,2 C 13,2 C 86 % 1023,2 hPa 0,0 mm 0,0 km/h (0 Bft) S-SO 157 10,9 C 0,0 km/h (0 Bft)
_ Min-Zeit 05:00 05:00 14:05 16:50 - 23:55 - - 05:00 23:55
Minimum _ 10,7 C 10,5 C 53 % 1020,4 hPa - 0,0 km/h (0 Bft) - - 7,6 C 0,0 km/h (0 Bft)
_ Max-Zeit 14:05 14:05 23:35 23:55 19:45 14:25 - - 17:20 14:30
Maximum _ 23,4 C 26,9 C 91 % 1023,2 hPa 2,1 mm 19,4 km/h
NW (3 Bft)
- - 15,3 C 38,8 km/h
W-NW (5 Bft)
Durchschnitt _ 16,1 C 17,0 C 74 % 1021,2 hPa #10,3 mm 2,4 km/h (1 Bft) S - 11,4 C 3,2 km/h (1 Bft)